Regional Weather Roundup
Issued by NWS

Home | Current Version | Previous Version | Text Only | Print | Product List | Glossary On
Versions: 1 2 3 4 5 6 7 8 9 10 11 12 13 14 15 16 17 18 19 20 21 22 23 24 25 26 27 28 29 30 31 32 33 34 35 36 37 38 39 40 41 42 43 44 45 46 47 48 49 50
000
ASUS43 KMPX 231201
RWRMN
WEATHER ROUNDUP FOR MINNESOTA
NATIONAL WEATHER SERVICE TWIN CITIES/CHANHASSEN MN
700 AM CDT THU OCT 23 2014


NOTE: "FAIR" INDICATES FEW OR NO CLOUDS BELOW 12,000 FEET WITH NO
SIGNIFICANT WEATHER AND/OR OBSTRUCTIONS TO VISIBILITY. N/A MEANS
CURRENT SKY AND/OR WEATHER CONDITIONS ARE NOT AVAILABLE.

MNZ060>063-068>070-231300-
   Twin Cities Metro

CITY           SKY/WX    TMP DP  RH WIND       PRES   REMARKS
TWIN CITIES    CLOUDY    52  50  93 S6        29.99S
6HR MIN TEMP:  50; 6HR MAX TEMP:  56; 6HR PCP:  0.14;

ST PAUL        CLOUDY    51  49  92 S6        30.00F
CRYSTAL        CLOUDY    54  50  86 S5        29.97S
BLAINE         CLOUDY    54  54 100 S6        29.98S
LAKEVILLE      CLOUDY    48  48 100 S3        29.99S
EDEN PRAIRIE   CLOUDY    53  51  93 S6        29.98S
6HR MIN TEMP:  52; 6HR MAX TEMP:  57; 6HR PCP:  0.04;

SOUTH ST PAUL  CLOUDY    52  49  90 S6        29.99S
LAKE ELMO      CLOUDY    50  48  93 S8        30.00F
$$
MNZ001>005-007-008-013>017-022>024-027-028-231300-
   Northwest Minnesota

CITY           SKY/WX    TMP DP  RH WIND       PRES   REMARKS
BEMIDJI        CLOUDY    48  47  97 SW7       29.90S
HALLOCK        PTCLDY    43  41  93 SE8       29.82R
ROSEAU         CLOUDY    48  43  81 S8        29.83S
WARROAD        MOCLDY    48  45  87 SW7       29.83S
THIEF RVR FALL PTCLDY    46  45  93 S7        29.86S
CROOKSTON      CLEAR     45  43  93 S8        29.87S
FOSSTON        CLOUDY    46  45  93 S9        29.89F
DETROIT LAKES  CLEAR     46  45  93 S6        29.93S
MOORHEAD       CLEAR     43  43 100 S7        29.92R
PARK RAPIDS    CLOUDY    50  49  96 SW5       29.93R
MAHNOMEN       FAIR      45  45  97 S12       29.89S
$$
MNZ006-009>011-018-025>026-231300-
   North Central Minnesota

CITY           SKY/WX    TMP DP  RH WIND       PRES   REMARKS
BAUDETTE       CLOUDY    49  47  93 S14       29.85S
FLAG ISLAND    PTCLDY    48  46  93 S8        29.80S
INTL FALLS     CLOUDY    49  47  93 SW7       29.88S
6HR MIN TEMP:  48; 6HR MAX TEMP:  51; 6HR PCP:  0.05;

WASKISH        PTCLDY    48  48 100 CALM      29.88S
BIG FORK       CLOUDY    50  48  93 S7        29.91S FOG
LONGVILLE      CLOUDY    52  52 100 CALM      29.92S
GRAND RAPIDS   CLOUDY    50  46  87 S6        29.93S
CRANE LAKE     CLOUDY    46  45  93 S5        29.93R
ORR            CLOUDY    46  45  93 CALM      29.88F FOG
COOK           CLOUDY    46  46 100 S3        29.92S
WALKER         CLOUDY    49  48  97 SW7       29.91S
$$
MNZ012-019>021-037-231300-
   Northeast Minnesota

CITY           SKY/WX    TMP DP  RH WIND       PRES   REMARKS
DULUTH         CLOUDY    48  45  89 S9        29.95F
6HR MIN TEMP:  48; 6HR MAX TEMP:  52; 6HR PCP:  0.05;

ELY            CLOUDY    45  43  93 S6        29.94S
HIBBING        CLOUDY    48  45  89 S3        29.94R FOG
EVELETH        CLOUDY    45  45 100 S3        29.95S
DULUTH HARBOR  LGT RAIN  48  46  93 CALM      29.97F
TWO HARBORS    LGT RAIN  48  37  66 CALM      29.95F
SILVER BAY     LGT RAIN  46  45  93 CALM      29.96S
GRAND MARAIS     N/A     48  43  82 CALM      29.99F
G MARAIS ARPRT CLOUDY    43  37  81 SE5       29.98F
$$
MNZ029>031-032-039>041-046>048-054>057-064-231300-
   West Central Minnesota

CITY           SKY/WX    TMP DP  RH WIND       PRES   REMARKS
FERGUS FALLS   FOG       43  41  93 SE6       29.95S VSB 1/4
WHEATON        CLEAR     43  39  87 S6        29.96S
MORRIS         FOG       41  39  93 SE5       29.95R VSB<1/4
ALEXANDRIA     MOCLDY    45  44  97 SW6       29.96R FOG
ELBOW LAKE       N/A     40  40 100 S6        29.95R FOG
WADENA         FOG       46  46 100 CALM      29.94R VSB<1/4
GLENWOOD       FOG       45  43  93 SW5       29.97R VSB 1/4
APPLETON       CLEAR     45  43  93 S3        29.96R
BENSON         MIX PCPN  43  43 100 S6        29.97R VSB 1/4
ORTONVILLE     CLEAR     46  43  87 W6        29.95S
MADISON        CLEAR     46  45  93 SW5       29.96S
WILLMAR        FOG       46  45  93 CALM      29.98S VSB<1/4
$$
MNZ033>034-036-042>043-049>051-058-059-231300-
   Central Minnesota

CITY           SKY/WX    TMP DP  RH WIND       PRES   REMARKS
ST CLOUD       CLOUDY    55  52  89 SW5       29.96S FOG
6HR MIN TEMP:  53; 6HR MAX TEMP:  56; 6HR PCP:  0.10;

SAUK CENTRE    FOG       48  48 100 SW3       29.96S VSB 1/4
PAYNESVILLE    FOG       47  47 100 S3        29.97S VSB 1/4
AITKIN         HAZE      54  46  76 SW5       29.93S VSB 1/2
PINE RIVER     CLOUDY    52  52 100 SW3       29.97S
BRAINERD       FOG       50  50 100 SW7       29.95S VSB 1
STAPLES        CLOUDY    48  48 100 SW5       29.94S
LONG PRAIRIE   FOG       46  46 100 S5        29.96R VSB 1/4
LITTLE FALLS   CLOUDY    52  50  93 SW5       29.96S FOG
LITCHFIELD     FOG       52  52 100 CALM      29.98S VSB 1/4
BUFFALO        CLOUDY    54  52  93 SW3       29.98F
MAPLE LAKE     CLOUDY    55  54  97 SW3       29.98F
$$
MNZ037-044-045-052-053-231300-
   East Central Minnesota

CITY           SKY/WX    TMP DP  RH WIND       PRES   REMARKS
PRINCETON      FOG       54  52  94 CALM      29.97S VSB 1/2
MORA           FOG       46  46 100 S3        29.98S VSB 3/4
CAMBRIDGE      HAZE      54  46  76 S3        29.96R VSB 1/2
RUSH CITY      CLOUDY    49  48  95 S5        29.98S FOG
MOOSE LAKE     CLOUDY    46  46 100 SW3       29.95S FOG
HINCKLEY       CLOUDY    48  48 100 CALM      29.97S FOG
CLOQUET        CLOUDY    46  45  93 S6        29.95F
MCGREGOR       CLOUDY    48  48 100 S3        29.95S VSB 1/2
$$
MNZ071>073-080-081-089-090-097-098-231300-
   Southwest Minnesota

CITY           SKY/WX    TMP DP  RH WIND       PRES   REMARKS
MONTEVIDEO     CLEAR     45  45 100 SW3       29.98R FOG
GRANITE FALLS  FOG       42  42 100 S3        29.99S VSB 3/4
CANBY          CLEAR     49  45  88 SW10      29.98R
MARSHALL       CLEAR     48  43  81 W12       29.97S
REDWOOD FALLS  FOG       45  44  97 SW6       29.98S VSB 1/4
OLIVIA         FOG       45  43  93 SW5       29.97S VSB 1/4
PIPESTONE      FOG       48  48 100 CALM      30.00S VSB<1/4
WINDOM         FOG       52  50  93 SW6       30.00S VSB 3/4
WORTHINGTON    CLOUDY    50  48  93 W5        30.02R VSB 1/2
JACKSON        CLOUDY    50  48  93 W5        30.01S FOG
TRACY          CLEAR     49  48  97 SW10      29.99S
SLAYTON        FOG       48  48 100 SW7       30.01S VSB 1/2
$$
MNZ065>067-074>077-082>085-091>093-231300-
   South Central Minnesota

CITY           SKY/WX    TMP DP  RH WIND       PRES   REMARKS
MANKATO        CLOUDY    52  46  82 S7        29.99S
NEW ULM        FOG       48  48 100 SW3       29.99S VSB<1/4
ST JAMES       FOG       50  48  93 CALM      30.01S VSB 1/2
FAIRMONT       CLOUDY    54  50  87 SW5       30.00S
GLENCOE        FOG       54  54 100 S3        29.97F VSB 1/4
FARIBAULT      CLOUDY    50  48  93 S3        30.01S FOG
OWATONNA       CLOUDY    50  48  93 S7        30.00F
WASECA         CLOUDY    50  46  87 S6        30.01F FOG
ALBERT LEA     DRIZZLE   50  48  93 S8        30.00F
$$
MNZ078>079-086>088-094>096-231300-
   Southeast Minnesota

CITY           SKY/WX    TMP DP  RH WIND       PRES   REMARKS
ROCHESTER      RAIN      48  46  93 S9        30.03F FOG
6HR MIN TEMP:  48; 6HR MAX TEMP:  52; 6HR PCP:  0.10;

STANTON        LGT RAIN  51  48  90 S3        29.99F
DODGE CENTER   LGT RAIN  48  46  93 S13       30.01F
WINONA         LGT RAIN  48  46  93 SE6       30.05F
AUSTIN         RAIN      48  46  93 S7        30.01F
PRESTON        CLOUDY    47  44  90 S10       30.04F
$$
ABBREVIATIONS USED IN REMARKS
   TC - TEMPERATURES IN CELSIUS
  WCI - WIND CHILL INDEX
   HX - HEAT INDEX
  VSB - VISIBILITY
$$



USA.gov is the U.S. government's official web portal to all federal, state and local government web resources and services.